Hourly Weather Kyzylaut

Today, 31 October, Saturday

Time Temperature Precipitation Wind Pressure Humidity
00:00 +3°C° 0 mm 2 mps 729 mmHg 61%
01:00 +2°C° 0 mm 2 mps 729 mmHg 63%
02:00 +2°C° 0 mm 2 mps 728 mmHg 66%
03:00 +2°C° 0 mm 1 mps 728 mmHg 68%
04:00 +1°C° 0 mm 1 mps 728 mmHg 70%
05:00 +1°C° 0 mm 1 mps 728 mmHg 71%
06:00 +2°C° 0 mm 1 mps 728 mmHg 67%
07:00 +2°C° 0 mm 1 mps 728 mmHg 63%
08:00 +3°C° 0 mm 1 mps 728 mmHg 59%
09:00 +6°C° 0 mm 1 mps 728 mmHg 50%
10:00 +8°C° 0 mm 1 mps 728 mmHg 42%
11:00 +9°C° 0 mm 2 mps 728 mmHg 34%
12:00 +12°C° 0 mm 2 mps 728 mmHg 31%
13:00 +13°C° 0 mm 2 mps 728 mmHg 28%
14:00 +13°C° 0 mm 3 mps 728 mmHg 25%
15:00 +13°C° 0 mm 2 mps 727 mmHg 27%
16:00 +12°C° 0 mm 2 mps 727 mmHg 30%
17:00 +9°C° 0 mm 2 mps 727 mmHg 33%
18:00 +8°C° 0 mm 2 mps 727 mmHg 35%
19:00 +7°C° 0 mm 2 mps 727 mmHg 38%
20:00 +6°C° 0 mm 2 mps 727 mmHg 40%
21:00 +6°C° 0 mm 2 mps 727 mmHg 43%
22:00 +5°C° 0 mm 2 mps 727 mmHg 46%
23:00 +5°C° 0 mm 2 mps 726 mmHg 49%

Tomorrow, 1 November, Sunday

Time Temperature Precipitation Wind Pressure Humidity
00:00 +4°C° 0 mm 2 mps 726 mmHg 52%
01:00 +5°C° 0 mm 1 mps 726 mmHg 54%
02:00 +4°C° 0 mm 1 mps 725 mmHg 57%
03:00 +3°C° 0 mm 1 mps 725 mmHg 59%
04:00 +3°C° 0 mm 1 mps 725 mmHg 61%
05:00 +3°C° 0 mm 1 mps 725 mmHg 63%
06:00 +3°C° 0 mm 1 mps 725 mmHg 58%
07:00 +4°C° 0 mm 1 mps 726 mmHg 53%
08:00 +4°C° 0 mm 0 mps 726 mmHg 48%
09:00 +7°C° 0 mm 0 mps 726 mmHg 41%
10:00 +9°C° 0 mm 0 mps 726 mmHg 34%
11:00 +12°C° 0 mm 0 mps 726 mmHg 26%
12:00 +14°C° 0 mm 1 mps 726 mmHg 24%
13:00 +16°C° 0 mm 1 mps 726 mmHg 21%
14:00 +18°C° 0 mm 1 mps 725 mmHg 19%
15:00 +15°C° 0 mm 1 mps 725 mmHg 22%
16:00 +13°C° 0 mm 1 mps 725 mmHg 26%
17:00 +10°C° 0 mm 1 mps 725 mmHg 29%
18:00 +10°C° 0 mm 1 mps 725 mmHg 30%
19:00 +9°C° 0 mm 1 mps 725 mmHg 32%
20:00 +9°C° 0 mm 1 mps 725 mmHg 33%
21:00 +8°C° 0 mm 1 mps 725 mmHg 34%
22:00 +8°C° 0 mm 1 mps 725 mmHg 35%
23:00 +7°C° 0 mm 1 mps 725 mmHg 36%

Day after tomorrow, 2 November, Monday

Time Temperature Precipitation Wind Pressure Humidity
00:00 +7°C° 0 mm 1 mps 724 mmHg 36%
01:00 +7°C° 0 mm 1 mps 724 mmHg 37%
02:00 +6°C° 0 mm 1 mps 724 mmHg 37%
03:00 +6°C° 0 mm 1 mps 724 mmHg 42%
04:00 +5°C° 0 mm 1 mps 724 mmHg 47%
05:00 +4°C° 0 mm 0 mps 724 mmHg 52%
06:00 +6°C° 0 mm 1 mps 724 mmHg 46%
07:00 +7°C° 0 mm 1 mps 725 mmHg 39%
08:00 +8°C° 0 mm 1 mps 725 mmHg 33%
09:00 +9°C° 0 mm 0 mps 725 mmHg 28%
10:00 +12°C° 0 mm 0 mps 726 mmHg 22%
11:00 +15°C° 0 mm 0 mps 726 mmHg 17%
12:00 +18°C° 0 mm 1 mps 726 mmHg 16%
13:00 +18°C° 0 mm 2 mps 726 mmHg 15%
14:00 +19°C° 0 mm 3 mps 726 mmHg 14%
15:00 +17°C° 0 mm 2 mps 726 mmHg 17%
16:00 +15°C° 0 mm 2 mps 726 mmHg 20%
17:00 +13°C° 0 mm 2 mps 726 mmHg 24%
18:00 +10°C° 0 mm 2 mps 726 mmHg 28%
19:00 +9°C° 0 mm 1 mps 726 mmHg 32%
20:00 +6°C° 0 mm 0 mps 726 mmHg 35%
21:00 +6°C° 0 mm 0 mps 726 mmHg 38%
22:00 +5°C° 0 mm 0 mps 726 mmHg 40%
23:00 +5°C° 0 mm 0 mps 726 mmHg 42%

3 November, Tuesday

Time Temperature Precipitation Wind Pressure Humidity
00:00 +4°C° 0 mm 0 mps 726 mmHg 47%
01:00 +4°C° 0 mm 0 mps 726 mmHg 51%
02:00 +4°C° 0 mm 0 mps 726 mmHg 56%
03:00 +3°C° 0 mm 0 mps 726 mmHg 58%
04:00 +3°C° 0 mm 0 mps 726 mmHg 60%
05:00 +3°C° 0 mm 0 mps 726 mmHg 62%
06:00 +4°C° 0 mm 0 mps 726 mmHg 54%
07:00 +5°C° 0 mm 0 mps 727 mmHg 46%
08:00 +6°C° 0 mm 0 mps 727 mmHg 38%
09:00 +8°C° 0 mm 0 mps 727 mmHg 32%
10:00 +12°C° 0 mm 1 mps 728 mmHg 26%
11:00 +15°C° 0 mm 1 mps 728 mmHg 20%
12:00 +16°C° 0 mm 1 mps 728 mmHg 19%
13:00 +17°C° 0 mm 2 mps 728 mmHg 17%
14:00 +18°C° 0 mm 2 mps 728 mmHg 16%
15:00 +16°C° 0 mm 2 mps 728 mmHg 19%
16:00 +14°C° 0 mm 2 mps 728 mmHg 22%
17:00 +12°C° 0 mm 2 mps 727 mmHg 25%
18:00 +9°C° 0 mm 2 mps 728 mmHg 28%
19:00 +9°C° 0 mm 1 mps 728 mmHg 31%
20:00 +8°C° 0 mm 1 mps 728 mmHg 34%
21:00 +8°C° 0 mm 1 mps 728 mmHg 34%
22:00 +7°C° 0 mm 2 mps 728 mmHg 35%
23:00 +7°C° 0 mm 2 mps 728 mmHg 35%

4 November, Wednesday

Time Temperature Precipitation Wind Pressure Humidity
00:00 +6°C° 0 mm 2 mps 728 mmHg 36%
01:00 +6°C° 0 mm 2 mps 728 mmHg 37%
02:00 +6°C° 0 mm 2 mps 728 mmHg 38%
03:00 +5°C° 0 mm 2 mps 728 mmHg 40%
04:00 +4°C° 0 mm 2 mps 728 mmHg 42%
05:00 +4°C° 0 mm 2 mps 728 mmHg 43%
06:00 +4°C° 0 mm 2 mps 729 mmHg 41%
07:00 +5°C° 0 mm 2 mps 729 mmHg 39%
08:00 +5°C° 0 mm 2 mps 729 mmHg 38%
09:00 +7°C° 0 mm 2 mps 729 mmHg 34%
10:00 +8°C° 0 mm 2 mps 729 mmHg 30%
11:00 +10°C° 0 mm 2 mps 729 mmHg 27%
12:00 +12°C° 0 mm 2 mps 729 mmHg 26%
13:00 +12°C° 0 mm 2 mps 729 mmHg 25%
14:00 +13°C° 0 mm 2 mps 728 mmHg 24%
15:00 +12°C° 0 mm 2 mps 728 mmHg 28%
16:00 +10°C° 0 mm 3 mps 728 mmHg 31%
17:00 +8°C° 0 mm 3 mps 728 mmHg 34%
18:00 +7°C° 0 mm 2 mps 728 mmHg 39%
19:00 +6°C° 0 mm 2 mps 728 mmHg 43%
20:00 +5°C° 0 mm 2 mps 728 mmHg 48%
21:00 +5°C° 0 mm 1 mps 728 mmHg 51%
22:00 +4°C° 0 mm 1 mps 728 mmHg 55%
23:00 +3°C° 0 mm 1 mps 728 mmHg 59%

5 November, Thursday

Time Temperature Precipitation Wind Pressure Humidity
00:00 +3°C° 0 mm 1 mps 728 mmHg 62%
01:00 +2°C° 0 mm 1 mps 728 mmHg 66%
02:00 +1°C° 0 mm 1 mps 728 mmHg 69%
03:00 +1°C° 0 mm 1 mps 728 mmHg 70%
04:00 0°C° 0 mm 0 mps 728 mmHg 71%
05:00 -1°C° 0 mm 0 mps 728 mmHg 72%
06:00 0°C° 0 mm 0 mps 729 mmHg 67%
07:00 +2°C° 0 mm 1 mps 729 mmHg 61%
08:00 +3°C° 0 mm 1 mps 729 mmHg 56%
09:00 +5°C° 0 mm 1 mps 729 mmHg 49%
10:00 +7°C° 0 mm 1 mps 729 mmHg 42%
11:00 +7°C° 0 mm 2 mps 729 mmHg 35%
12:00 +8°C° 0 mm 2 mps 729 mmHg 32%
13:00 +9°C° 0 mm 3 mps 729 mmHg 28%
14:00 +10°C° 0 mm 3 mps 729 mmHg 25%
15:00 +9°C° 0 mm 3 mps 729 mmHg 26%
16:00 +8°C° 0 mm 3 mps 729 mmHg 27%
17:00 +5°C° 0 mm 3 mps 729 mmHg 28%
18:00 +4°C° 0 mm 3 mps 729 mmHg 29%
19:00 +3°C° 0 mm 3 mps 729 mmHg 31%
20:00 +2°C° 0 mm 3 mps 730 mmHg 32%
21:00 +1°C° 0 mm 3 mps 729 mmHg 34%
22:00 +1°C° 0 mm 3 mps 729 mmHg 35%
23:00 +1°C° 0 mm 2 mps 729 mmHg 37%
Show more

We Need Your Consent

Meteoprog and our Service Providers may store and access personal data such as cookies, device identifiers or other similar technologies on your device and process such data to personalise content and ads, as well as provide social media features and to analyse the traffic.

  • Store and/or access information on your device

    Cookies, device identifiers or other information can be stored or accessed on your device for the purposes indicated above.

  • Personalised ads and content, ad and content measurement, audience insights, and products development

    Ads and content can be personalised based on a profile. More data can be added to better personalise ads and content. Ad and content performance can be measured. Insights about the audience who saw the ads and content can be derived. Such data can be used to develop or improve user’s experience, systems and software.

By clicking ‘I Agree’ you will allow the use of indicated cookies, device identifiers, web beacons or other similar technologies. Your settings can be changed in the browser on your device.

For certain purposes, legitimate interests may be relied on, rather than consent. You can read more about this in our Privacy and Cookie Policy.